Regional Weather Roundup
Issued by NWS

Home | Current Version | Previous Version | Text Only | Print | Product List | Glossary On
Versions: 1 2 3 4 5 6 7 8 9 10 11 12 13 14 15 16 17 18 19 20 21 22 23 24 25 26 27 28 29 30 31 32 33 34 35 36 37 38 39 40 41 42 43 44 45 46 47 48 49 50
000
ASUS43 KDMX 211706
RWRIA

WEATHER ROUNDUP FOR IOWA
NATIONAL WEATHER SERVICE DES MOINES IA
1200 PM CDT FRI JUL 21 2017

NOTE: "FAIR" INDICATES FEW OR NO CLOUDS BELOW 12,000 FEET WITH NO
SIGNIFICANT WEATHER AND/OR OBSTRUCTIONS TO VISIBILITY.

* - THESE STATIONS ARE NOT NWS STATIONS...THUS NOT UNDER NWS
QUALITY CONTROL.  THEY ALSO DO NOT REPORT WEATHER SUCH
AS PRECIPITATION OR FOG.

IAZ001>003-012>014-020>022-031>034-043>046-211800-
   NORTHWEST IOWA

CITY           SKY/WX    TMP DP  RH WIND       PRES   REMARKS
CARROLL *      CLOUDY    82  77  83 E10       29.87S HX  91
CHEROKEE *     CLOUDY    78  74  87 E15G25    29.87S HX  80
DENISON *      MOSUNNY   86  75  70 E3        29.86F HX  95
ORANGE CITY *  PTSUNNY   77  72  83 SE13G23   29.79S
SHELDON *      CLOUDY    73  70  88 E6        29.75F
SIOUX CITY     MOSUNNY   85  75  72 E18G25    29.79F HX  93
SPENCER        TSTM      73  71  93 S16G25    29.85R
STORM LAKE *   MOSUNNY   79  73  83 E18G25    29.88F HX  82
$$

IAZ055>058-069>071-079>083-090>094-211800-
   SOUTHWEST IOWA

CITY           SKY/WX    TMP DP  RH WIND       PRES   REMARKS
ATLANTIC *     SUNNY     91  73  55 S14       29.83F HX 100
AUDUBON *      SUNNY     90  77  66 S5        29.87R HX 102
CLARINDA *     SUNNY     90  79  70 S9G20     29.86F HX 105
COUNCIL BLFS * SUNNY     91  75  59 SW13G18   29.82F HX 102
CRESTON *      SUNNY     91  75  59 S16       29.88F HX 102
HARLAN  *      MOSUNNY   90  77  66 S9G15     29.87S HX 102
LAMONI         SUNNY     90  76  63 S16       29.89F HX 101
RED OAK *      SUNNY     91  77  62 S13       29.84R HX 105
SHENANDOAH *   SUNNY     91  77  62 S13G20    29.83F HX 105
$$

IAZ047>049-059>061-072>074-084-211800-
   CENTRAL IOWA

CITY           SKY/WX    TMP DP  RH WIND       PRES   REMARKS
AMES           CLOUDY    82  78  88 E13       29.89F HX  91
ANKENY *       MOSUNNY   90  77  66 SE7       29.88S HX 102
BOONE *        PTSUNNY   82  77  83 E15G22    29.89F HX  91
CHARITON *     SUNNY     93  73  52 S10G20    29.89F HX 102
DES MOINES     MOSUNNY   92  75  57 S7        29.86F HX 103
GRINNELL*      SUNNY     86  76  71 SE5       29.92F HX  96
KNOXVILLE *    SUNNY     91  75  59 S13       29.87F HX 102
MARSHALLTOWN   CLOUDY    77  72  84 NE16G23   29.93S
NEWTON *       MOSUNNY   86  77  74 SE8       29.90F HX  97
PELLA *        SUNNY     91  75  59 S6        29.89F HX 102
$$

IAZ004>006-015-016-023>025-035-036-211800-
   NORTH CENTRAL IOWA

CITY           SKY/WX    TMP DP  RH WIND       PRES   REMARKS
ALGONA *       CLOUDY    77  73  88 S6G13     29.96R
CLARION *      CLOUDY    75  75 100 E20G29    29.90F
ESTHERVILLE    LGT RAIN  72  72 100 SE20G26   29.85F
FORT DODGE *   CLOUDY    79  73  83 SE17      29.91S HX  82
MASON CITY     CLOUDY    72  68  87 E21G29    29.95F
FOREST CITY *  PTSUNNY   72  70  94 E17G25    29.93R
WEBSTER CITY * CLOUDY    77  73  88 E22       29.88S
IOWA FALLS *   LGT RAIN  73  70  92 E18G24    29.94F
$$

IAZ007>011-017>019-026>030-037>042-050>054-066-211800-
   NORTHEAST IOWA

CITY           SKY/WX    TMP DP  RH WIND       PRES   REMARKS
CEDAR RAPIDS   MOSUNNY   84  78  82 S9        29.93F HX  95
CHARLES CITY * CLOUDY    70  70 100 E12       29.98F
CLINTON *      MOSUNNY   81  75  82 E7        29.97F HX  87
DECORAH *      LGT RAIN  68  68 100 CALM      30.00F
DUBUQUE        CLOUDY    75  71  87 SE8       29.97F
MONTICELLO *   CLOUDY    79  73  83 E9        29.95F HX  82
OELWEIN *      LGT RAIN  70  68  94 NE9G16    29.99F
WATERLOO       CLOUDY    71  68  90 E13       29.95F
$$

IAZ064-065-067-068-078-211800-
   EAST CENTRAL IOWA

CITY           SKY/WX    TMP DP  RH WIND       PRES   REMARKS
DAVENPORT      CLOUDY    82  71  69 SE14      29.97F HX  86
IOWA CITY      CLOUDY    86  76  71 S13       29.93F HX  96
MT. PLEASANT * SUNNY     90  77  65 SE12      29.93F HX 102
MUSCATINE *    MOSUNNY   86  75  70 SE8G16    29.93F HX  95
QUAD CITIES    CLOUDY    84  72  67 SE8       29.95F HX  89
$$

IAZ062-063-075>077-085>089-095>099-211800-
   SOUTHEAST IOWA

CITY           SKY/WX    TMP DP  RH WIND       PRES   REMARKS
BURLINGTON     SUNNY     90  80  72 S9        29.94F HX 107
FAIRFIELD *    SUNNY     91  75  59 S8G16     29.91F HX 102
FORT MADISON * SUNNY     90  81  74 S10       29.95F HX 108
KEOKUK *       SUNNY     91  75  59 S10       29.94F HX 102
OSKALOOSA *      N/A     91  75  59 SE6       29.90F HX 101
CENTERVILLE *    N/A     93  75  55 S7        29.92F HX 104
OTTUMWA        SUNNY     93  75  55 SE8       29.89F HX 104
WASHINGTON *   SUNNY     88  81  79 SE9G16    29.93F HX 105
$$

ABBREVIATIONS USED IN REMARKS
   TC - TEMPERATURES IN CELSIUS
  WCI - WIND CHILL INDEX
   HX - HEAT INDEX
  VSB - VISIBILITY
$$




USA.gov is the U.S. government's official web portal to all federal, state and local government web resources and services.